Погода в Владимире

Погода в Владимире : погода сейчас, прогноз погоды и архив. Всё, что Вы хотите узнать о погоде в Владимире!

Хотите узнать прогноз погоды в Владимире? Тогда Вам сюда: Погода в Владимире

Поиск расширенной информации на нашем сайте:

Другие новости

Новости СМИ2

Главная страница сайта

Новости сайта

03.07.2017

Напоминаем, что на нашем специализированном сайте Метеоцентр.Азия вы можете получить высокодетализированные автоматические прогнозы погоды по пунктам России, СНГ и мира в авиационном формате (включающие направление и скорость ветра, видимость, явления погоды, количество и форму облачности, нижнюю и верхнюю границу облачности).


Погода в Владимире - сегодня

Время (UTC), дата Ветер
(°,м/с) 
Видим.   Явления Облачность Т
(°С)
Тd
(°С)
f(%) Тe
(°С)
Pmin
(гПа)
dP
(гПа)
Po
(мм)
O2
(г/м3)
Тmin Tmax R s Состояние
почвы
06 17.08.18 040 (СВ) 10 км    ясно 
+16.7 +11.9 73 +22  1024.1  0.8  753  284           
09 17.08.18 060 (СВ) 10 км    6/6 600 м 
[Cu hum]
+20.5 +9.9 51 +21  1024  0.1  753  280           
12 17.08.18 360 (С) 10 км    6/6 600 м 
[Cu hum]
+22.1 +7.9 40 +22  1023.4  -0.4  753  279           
18 17.08.18 360 (С) 10 км    3/0 верхняя 
[Ci fib]
+12.6 +9.3 80 +14  1024.1  0.3  753  288           
21 17.08.18 тихо ()   4000 м  дымка  3/0 верхняя 
[Ci fib]
+10.1 +8.7 91 +10  1024.6  0.4  753  291           
00 18.08.18 тихо ()   4000 м  дымка  ясно 
+8.6 +7.6 93 +9  1025.4  0.6  753  293           
03 18.08.18 тихо ()   4000 м  дымка  ясно 
+9 +8.2 95 +9  1026.1  0.7  754  293  +7.5        сухая 
06 18.08.18 040 (СВ) 10 км    ясно 
+18.7 +10.7 60 +22  1025.5  0.1  754  282           
09 18.08.18 060 (СВ) 10 км    5/5 600 м 
[Cu hum]
+21.7 +6.9 38 +22  1024.7  -0.6  753  280           
12 18.08.18 220 (ЮЗ) 10 км    3/3 600 м 
[Cu hum]
+22.7 +6.6 35 +23  1023.9  -0.7  753  279           
18 18.08.18 130 (ЮВ) 10 км    ясно 
+15.1 +9.7 70 +17  1023.5  0.1  752  285           
21 18.08.18 180 (Ю) 10 км    ясно 
+14.6 +9 69 +16  1024  0.5  753  286           
00 19.08.18 тихо ()   10 км    ясно 
+10.1 +8.2 88 +10  1024.3  0.1  753  291           
06 19.08.18 210 (ЮЗ) 10 км    ясно 
+18.7 +9.3 54 +20  1022.6  -0.6  752  282           
09 19.08.18 220 (ЮЗ) 10 км    3/3 600 м 
[Cu hum]
+23.1 +8.6 40 +23  1020.9  -1.4  751  277           
12 19.08.18 200 (Ю) 10 км    6/6 600 м 
[Cu hum]
+24.8 +8.4 35 +25  1018.9  -1.9  749  275           
18 19.08.18 190 (Ю) 10 км    4/0 средняя 
[Ac trans]
+20.2 +10.6 54 +22  1016.5  -0.7  747  278           
21 19.08.18 220 (ЮЗ) 10 км    8/0 средняя 
[Ac trans]
+19.9 +10.7 55 +23  1015.6  -0.9  747  278           
00 20.08.18 210 (ЮЗ) н/о    н/о 
+17.4 +11.4 68 +21  1015.2  -0.5  746  281           
03 20.08.18 240 (ЮЗ) 10 км    9/3 600 м верхняя 
[Sc|Ci fib]
+15.8 +11.9 78 +20  1015.3  -0.1  746  282  +15        сухая 
06 20.08.18 240 (ЮЗ) 10 км    8/0 средняя, верхняя 
[Ac trans|Ci fib]
+19.8 +14.7 72 +29  1014.3  -0.6  746  277           
09 20.08.18 290 (З) 10 км    9/6 600 м средняя 
[Cu med, cong|Ac trans]
+23.8 +13 51 +29  1014.2  0.1  746  274           
12 20.08.18 310 (СЗ) 10 км    8/5 600 м средняя 
[Cu med, cong|Ac trans]
+24.1 +14.3 54 +32  1013.1  -1  745  273           
18 20.08.18 220 (ЮЗ) 10 км    8/8 600 м 
[Sc]
+17.5 +13.6 78 +26  1012.9  -0.3  745  279           
21 20.08.18 210 (ЮЗ) н/о    н/о 
+17.2 +13 76 +24  1012  -0.8  744  279           
Время (UTC), дата Ветер
(°,м/с) 
Видим.   Явления Облачность Т
(°С)
Тd
(°С)
f(%) Тe
(°С)
Pmin
(гПа)
dP
(гПа)
Po
(мм)
O2
(г/м3)
Тmin Tmax R s Состояние
почвы

Для получения пояснительной информации подведите курсор к названию столбца.

ПОГОДА в Владимире - архив

Всё, что Вы хотите узнать о погоде в Владимире - удобно и подробно!

Выберите нужную дату (начиная с 1 января 2015* года) и нажмите кнопку "Найти".
Будут отображены архивные сводки погоды по пункту Владимир, начиная с указанной даты.


Отображать данные в формате CSV (для использования в таблицах Excel)


Внимание! Наш архив погоды предназначен исключительно для личного некоммерческого использования в познавательных целях. Если Вам необходимы официальные справки о состоянии погоды (для производственных, юридических, коммерческих и т.п. целей), обращайтесь в органы Росгидромета.

*Примечание: данная дата относится к архиву по метеостанциям СССР (Россия, СНГ, Балтия).
Архив по метеостанциям Зарубежной Европы и Азии (кроме Китая) хранится 10 дней, по другим регионам земного шара (Китай, Африка, Америка, Австралия, Океания) - 1 день.

Владимир - район местоположения метеостанции


Название, широта, долгота, высота метеостанции:
Владимир 56.1°ш. 40.3°д. 172 м над ур. моря [Российская Федерация]

Дополнительная информация

В oтличие oт бoльшинства пoгoдных сайтoв мы публикуем пoдрoбную метеoинфoрмацию в детальнoм прoфессиoнальнoм фoрмате.

Характеристики температуры и влажнoсти вoздуха измеряются на высoте 2 м в тени вдали oт зданий и деревьев.
Скoрoсть ветра измеряется на высoте 10 м (на урoвне рoста челoвека скoрoсть ветра ниже в 1.5-2 раза). Если метеoстанция нахoдится в гoрoде или в лесу, тo скoрoсть ветра занижена на 2-4 м/с пo сравнению с oткрытым местoм. Скoрoсть ветра над акватoриями крупных рек и oзёр, а также на вершинах хoлмoв на 2-5 м/с выше, чем в oбычных услoвиях.
Атмoсфернoе давление в разных тoчках местнoсти мoжет значительнo oтличаться oт давления на метеoстанции, в зависимoсти oт услoвий рельефа (при пoдъёме на 10 м давление пoнижается примернo на 1 мм рт.ст.).